EW8360 Weather Reports


time (UTC)temp
F
wind
direction
speed
knots
gust
knots
rain 1hr
in
rain 24hr
in
rain mn
in
humidity
%
barometer
mb
20260903231024 72 359 5.2 12.2 0.00 0.00 0.00 72 1011.3
20260903230523 72 282 3.5 12.2 0.00 0.00 0.00 71 1011.3
20260903230022 73 340 7.8 13.0 0.00 0.00 0.00 72 1011.3
20260903225522 73 353 7.8 13.0 0.00 0.00 0.00 73 1011.3
20260903225247 73 278 5.2 13.9 0.00 0.00 0.00 70 1011.4
20260903224523 73 5 1.7 13.9 0.00 0.00 0.00 70 1011.4
20260903224022 73 337 7.8 10.4 0.00 0.00 0.00 70 1011.4
20260903223522 73 253 3.5 10.4 0.00 0.00 0.00 69 1011.5
20260903223023 73 332 7.0 11.3 0.00 0.00 0.00 69 1011.6
20260903222523 73 303 3.5 11.3 0.00 0.00 0.00 70 1011.8
20260903222021 73 340 6.1 12.2 0.00 0.00 0.00 71 1011.7
20260903221740 73 4 4.3 12.2 0.00 0.00 0.00 71 1011.7
20260903221022 74 272 3.5 12.2 0.00 0.00 0.00 70 1011.7
20260903220522 74 353 5.2 11.3 0.00 0.00 0.00 73 1011.6
20260903220021 74 321 3.5 13.0 0.00 0.00 0.00 70 1011.7
20260903215521 74 354 7.8 13.0 0.00 0.00 0.00 72 1011.7
20260903215021 74 346 3.5 8.7 0.00 0.00 0.00 69 1011.7
20260903214522 74 328 0.9 13.9 0.00 0.00 0.00 69 1011.8
20260903214021 74 268 6.1 13.9 0.00 0.00 0.00 69 1011.9
20260903213520 74 291 2.6 13.0 0.00 0.00 0.00 66 1011.9
20260903213020 74 329 2.6 13.0 0.00 0.00 0.00 71 1011.9
20260903212522 75 14 5.2 10.4 0.00 0.00 0.00 71 1011.9
20260903212021 75 305 4.3 8.7 0.00 0.00 0.00 71 1011.9
20260903211520 75 257 3.5 7.0 0.00 0.00 0.00 66 1012.0
20260903211019 74 272 4.3 8.7 0.00 0.00 0.00 68 1012.0
20260903210521 74 266 2.6 8.7 0.00 0.00 0.00 68 1012.0
20260903210021 74 63 3.5 8.7 0.00 0.00 0.00 71 1012.1
20260903205520 74 245 7.0 7.8 0.00 0.00 0.00 64 1012.1
20260903205019 74 1 3.5 8.7 0.00 0.00 0.00 68 1012.1
20260903204744 74 355 3.5 8.7 0.00 0.00 0.00 67 1012.0
20260903204020 74 358 4.3 8.7 0.00 0.00 0.00 67 1012.0
20260903203519 74 280 3.5 11.3 0.00 0.00 0.00 67 1011.9
20260903203238 73 293 4.3 11.3 0.00 0.00 0.00 68 1011.9
20260903202747 73 318 6.1 10.4 0.00 0.00 0.00 69 1012.0
20260903202019 73 272 4.3 10.4 0.00 0.00 0.00 71 1012.1
20260903201740 73 335 7.0 8.7 0.00 0.00 0.00 69 1012.1
20260903201018 73 233 2.6 11.3 0.00 0.00 0.00 72 1012.2
20260903200519 74 256 4.3 11.3 0.00 0.00 0.00 73 1012.1
20260903200019 74 295 5.2 12.2 0.00 0.00 0.00 73 1012.1
20260903195742 74 265 5.2 12.2 0.00 0.00 0.00 72 1012.2
20260903195019 74 346 7.0 10.4 0.00 0.00 0.00 73 1012.2
20260903194519 74 266 4.3 10.4 0.00 0.00 0.00 72 1012.2
20260903194019 74 265 2.6 15.6 0.00 0.00 0.00 71 1012.3
20260903193518 74 325 3.5 15.6 0.00 0.00 0.00 72 1012.3
20260903193018 74 257 7.0 12.2 0.00 0.00 0.00 71 1012.2
20260903192519 74 330 5.2 12.2 0.00 0.00 0.00 72 1012.4
20260903192018 74 320 3.5 10.4 0.00 0.00 0.00 71 1012.4
20260903191518 74 296 4.3 8.7 0.00 0.00 0.00 71 1012.4
20260903191017 74 325 5.2 8.7 0.00 0.00 0.00 72 1012.5
20260903190517 74 266 6.1 13.9 0.00 0.00 0.00 71 1012.5
20260903190019 74 272 2.6 13.9 0.00 0.00 0.00 72 1012.6
20260903185744 74 267 5.2 13.0 0.00 0.00 0.00 71 1012.7
20260903185017 74 222 7.0 13.0 0.00 0.00 0.00 73 1012.7
20260903184517 74 350 4.3 12.2 0.00 0.00 0.00 71 1012.7
20260903184018 74 326 9.6 12.2 0.00 0.00 0.00 71 1012.9
20260903183517 74 323 7.0 10.4 0.00 0.00 0.00 71 1013.0
20260903183017 74 13 2.6 8.7 0.00 0.00 0.00 69 1013.0
20260903182516 75 313 2.6 10.4 0.00 0.00 0.00 70 1013.0
20260903182017 75 329 5.2 10.4 0.00 0.00 0.00 70 1013.1
20260903181517 75 338 8.7 10.4 0.00 0.00 0.00 70 1013.1
20260903181015 76 261 1.7 7.8 0.00 0.00 0.00 69 1013.1
20260903180516 76 285 4.3 8.7 0.00 0.00 0.00 68 1013.1
20260903180243 76 355 4.3 8.7 0.00 0.00 0.00 69 1013.0
20260903175517 76 334 2.6 5.2 0.00 0.00 0.00 66 1013.1
20260903175236 75 248 0.9 6.1 0.00 0.00 0.00 63 1013.2
20260903174516 75 228 2.6 6.1 0.00 0.00 0.00 64 1013.2
20260903174017 75 213 4.3 6.1 0.00 0.00 0.00 63 1013.2
20260903173517 74 311 0.9 5.2 0.00 0.00 0.00 64 1013.2
20260903173015 74 277 0.9 5.2 0.00 0.00 0.00 65 1013.2
20260903172737 74 267 1.7 5.2 0.00 0.00 0.00 65 1013.2
20260903172016 74 278 1.7 5.2 0.00 0.00 0.00 64 1013.2
20260903171516 73 253 0.0 4.3 0.00 0.00 0.00 65 1013.2
20260903171015 73 224 1.7 5.2 0.00 0.00 0.00 65 1013.2
20260903170736 73 284 1.7 5.2 0.00 0.00 0.00 67 1013.1
20260903170015 72 337 0.9 5.2 0.00 0.00 0.00 67 1013.2
20260903165738 72 338 0.0 5.2 0.00 0.00 0.00 69 1013.2
20260903165015 72 354 4.3 5.2 0.00 0.00 0.00 68 1013.1
20260903164735 72 4 1.7 4.3 0.00 0.00 0.00 69 1013.1
20260903164014 71 290 0.9 4.3 0.00 0.00 0.00 71 1013.1
20260903163515 71 29 2.6 4.3 0.00 0.00 0.00 69 1013.2
20260903163013 71 300 0.9 4.3 0.00 0.00 0.00 72 1013.2
20260903162514 71 294 0.9 2.6 0.00 0.00 0.00 71 1013.3
20260903162013 71 293 1.7 2.6 0.00 0.00 0.00 73 1013.3
20260903161514 71 289 1.7 2.6 0.00 0.00 0.00 73 1013.4
20260903161230 70 285 0.9 1.7 0.00 0.00 0.00 72 1013.5
20260903160732 70 286 0.0 1.7 0.00 0.00 0.00 72 1013.4
20260903160013 69 290 0.9 1.7 0.00 0.00 0.00 73 1013.4
20260903155736 68 295 0.9 2.6 0.00 0.00 0.00 73 1013.3
20260903155233 68 17 0.0 2.6 0.00 0.00 0.00 75 1013.4
20260903154737 67 300 0.0 2.6 0.00 0.00 0.00 75 1013.4
20260903154013 66 335 0.9 2.6 0.00 0.00 0.00 76 1013.4
20260903153514 66 343 0.9 2.6 0.00 0.00 0.00 77 1013.4
20260903153238 66 0 1.7 2.6 0.00 0.00 0.00 77 1013.4
20260903152513 65 347 0.9 4.3 0.00 0.00 0.00 78 1013.4
20260903152012 65 18 1.7 4.3 0.00 0.00 0.00 79 1013.4
20260903151735 65 32 1.7 4.3 0.00 0.00 0.00 79 1013.3
20260903151014 66 17 1.7 2.6 0.00 0.00 0.00 79 1013.4
20260903150731 66 332 0.9 4.3 0.00 0.00 0.00 80 1013.4
20260903150011 66 282 0.9 4.3 0.00 0.00 0.00 81 1013.4
20260903145513 66 7 1.7 2.6 0.00 0.00 0.00 80 1013.4
20260903145013 66 308 0.9 1.7 0.00 0.00 0.00 77 1013.3
20260903144512 65 266 0.0 1.7 0.00 0.00 0.00 78 1013.4
20260903144011 64 223 0.9 4.3 0.00 0.00 0.00 79 1013.3
20260903143512 64 255 0.0 4.3 0.00 0.00 0.00 80 1013.3
20260903143012 63 155 2.6 2.6 0.00 0.00 0.00 81 1013.2
20260903142511 63 221 1.7 2.6 0.00 0.00 0.00 82 1013.2
20260903142238 62 225 0.0 2.6 0.00 0.00 0.00 83 1013.3
20260903141736 62 318 1.7 2.6 0.00 0.00 0.00 85 1013.2
20260903141011 62 276 0.0 0.9 0.00 0.00 0.00 86 1013.1
20260903140510 62 277 0.0 0.0 0.00 0.00 0.00 86 1013.1
20260903140010 61 259 0.0 1.7 0.00 0.00 0.00 87 1013.1
20260903135511 61 261 0.0 2.6 0.00 0.00 0.00 87 1012.9
20260903135011 61 221 0.9 2.6 0.00 0.00 0.00 87 1012.9
20260903134510 61 178 1.7 2.6 0.00 0.00 0.00 88 1012.8
20260903134010 61 232 0.0 4.3 0.00 0.00 0.00 89 1012.8
20260903133510 61 278 0.0 4.3 0.00 0.00 0.00 89 1012.7
20260903133010 61 351 1.7 4.3 0.00 0.00 0.00 90 1012.7
20260903132510 61 289 0.0 0.0 0.00 0.00 0.00 90 1012.6
20260903132009 61 263 0.0 0.0 0.00 0.00 0.00 90 1012.6
20260903131509 61 258 0.0 1.7 0.00 0.00 0.00 90 1012.6
20260903131011 61 302 0.0 1.7 0.00 0.00 0.00 90 1012.6
20260903130510 61 260 0.0 0.0 0.00 0.00 0.00 90 1012.7
20260903130230 61 270 0.0 0.0 0.00 0.00 0.00 89 1012.6
20260903125729 61 235 0.0 0.0 0.00 0.00 0.00 90 1012.6
20260903125229 61 267 0.0 0.0 0.00 0.00 0.00 90 1012.6
20260903124510 61 254 0.0 0.0 0.00 0.00 0.00 89 1012.7
20260903124229 61 261 0.0 1.7 0.00 0.00 0.00 90 1012.7
20260903123508 61 258 0.0 1.7 0.00 0.00 0.00 90 1012.7
20260903123010 61 336 0.0 0.0 0.00 0.00 0.00 91 1012.7
20260903122509 61 268 0.0 0.9 0.00 0.00 0.00 90 1012.7
20260903122228 61 257 0.0 4.3 0.00 0.00 0.00 91 1012.6
20260903121730 62 277 0.0 4.3 0.00 0.00 0.00 91 1012.6
20260903121009 62 301 0.0 0.0 0.00 0.00 0.00 91 1012.5
20260903120509 62 257 0.0 0.0 0.00 0.00 0.00 91 1012.6
20260903120009 62 253 0.0 1.7 0.00 0.00 0.00 90 1012.6
20260903115508 62 185 0.0 2.6 0.00 0.00 0.00 91 1012.5
20260903115009 62 289 0.9 2.6 0.00 0.00 0.00 91 1012.5
20260903114509 62 284 0.0 2.6 0.00 0.00 0.00 91 1012.6
20260903114008 62 281 0.0 4.3 0.00 0.00 0.00 91 1012.6
20260903113508 62 315 1.7 4.3 0.00 0.00 0.00 91 1012.6
20260903113009 62 271 0.0 0.9 0.00 0.00 0.00 91 1012.6
20260903112509 62 260 0.0 5.2 0.00 0.00 0.00 90 1012.6
20260903112008 62 239 0.9 5.2 0.00 0.00 0.00 91 1012.6
20260903111507 63 334 2.6 2.6 0.00 0.00 0.00 90 1012.6
20260903111008 63 288 0.0 2.6 0.00 0.00 0.00 90 1012.6
20260903110509 63 243 0.0 0.0 0.00 0.00 0.00 90 1012.7
20260903110007 63 251 0.0 2.6 0.00 0.00 0.00 90 1012.7
20260903105507 63 299 0.0 2.6 0.00 0.00 0.00 89 1012.8
20260903105008 63 262 0.0 1.7 0.00 0.00 0.00 89 1012.8
20260903104508 63 279 0.0 2.6 0.00 0.00 0.00 89 1012.7
20260903104006 63 283 0.0 4.3 0.00 0.00 0.00 89 1012.8
20260903103507 63 305 0.9 4.3 0.00 0.00 0.00 89 1012.7
20260903103007 63 284 0.0 2.6 0.00 0.00 0.00 89 1012.7
20260903102507 63 299 1.7 4.3 0.00 0.00 0.00 88 1012.7
20260903102007 63 343 1.7 4.3 0.00 0.00 0.00 88 1012.8
20260903101506 63 14 0.9 1.7 0.00 0.00 0.00 88 1012.9
20260903101230 63 328 0.0 1.7 0.00 0.00 0.00 88 1012.8
20260903100505 63 315 0.0 0.0 0.00 0.00 0.00 88 1012.8
20260903095935 64 309 0.0 2.6 0.00 0.00 0.00 88 1012.9
20260903095657 64 342 0.0 2.6 0.00 0.00 0.00 88 1012.9
20260903094934 64 34 0.9 2.6 0.00 0.00 0.00 88 1012.9
20260903094434 64 3 1.7 4.3 0.00 0.00 0.00 88 1013.0
20260903093934 64 6 1.7 4.3 0.00 0.00 0.00 88 1012.9
20260903093434 64 357 2.6 4.3 0.00 0.00 0.00 88 1013.1
20260903092933 64 351 3.5 4.3 0.00 0.00 0.00 88 1013.1
20260903092435 64 286 0.9 1.7 0.00 0.00 0.00 88 1013.1
20260903091934 63 342 1.7 1.7 0.00 0.00 0.00 88 1013.1
20260903091433 63 317 0.0 0.0 0.00 0.00 0.00 88 1013.3
20260903090933 64 300 0.0 0.0 0.00 0.00 0.00 88 1013.3
20260903090433 64 265 0.0 0.0 0.00 0.00 0.00 89 1013.3
20260903085934 64 276 0.0 2.6 0.00 0.00 0.00 89 1013.3
20260903085659 64 275 0.0 2.6 0.00 0.00 0.00 88 1013.3
20260903084932 64 336 0.9 2.6 0.00 0.00 0.00 88 1013.4
20260903084434 64 250 0.0 0.0 0.00 0.00 0.00 88 1013.4
20260903083934 64 250 0.0 0.9 0.00 0.00 0.00 88 1013.5
20260903083432 65 249 0.0 2.6 0.00 0.00 0.00 87 1013.5
20260903082932 65 277 0.9 2.6 0.00 0.00 0.00 87 1013.5
20260903082433 65 307 1.7 2.6 0.00 0.00 0.00 87 1013.5
20260903081933 65 356 0.9 2.6 0.00 0.00 0.00 86 1013.6
20260903081432 65 276 0.0 0.0 0.00 0.00 0.00 85 1013.7
20260903081150 65 215 0.0 0.0 0.00 0.00 0.00 85 1013.6
20260903080433 65 236 0.0 0.0 0.00 0.00 0.00 86 1013.7
20260903080200 65 223 0.0 0.0 0.00 0.00 0.00 86 1013.7
20260903075431 65 256 0.0 0.0 0.00 0.00 0.00 86 1013.7
20260903074931 65 238 0.0 0.9 0.00 0.00 0.00 87 1013.6
20260903074432 65 262 0.0 4.3 0.00 0.00 0.00 86 1013.7
20260903073933 66 257 0.0 4.3 0.00 0.00 0.00 86 1013.8
20260903073431 66 347 2.6 4.3 0.00 0.00 0.00 86 1013.8
20260903072931 66 301 1.7 2.6 0.00 0.00 0.00 85 1013.8
20260903072431 66 323 0.0 1.7 0.00 0.00 0.00 85 1013.7
20260903071931 66 340 0.9 1.7 0.00 0.00 0.00 85 1013.6
20260903071430 66 263 0.0 0.0 0.00 0.00 0.00 85 1013.7
20260903070931 66 220 0.0 0.0 0.00 0.00 0.00 85 1013.6
20260903070648 66 291 0.0 0.0 0.00 0.00 0.00 85 1013.7
20260903070151 66 286 0.0 0.0 0.00 0.00 0.00 85 1013.7
20260903065430 66 291 0.0 0.0 0.00 0.00 0.00 84 1013.7
20260903065151 67 277 0.0 0.0 0.00 0.00 0.00 84 1013.8
20260903064430 67 274 0.0 0.0 0.00 0.00 0.00 84 1013.8
20260903063932 67 247 0.0 0.0 0.00 0.00 0.00 84 1013.7
20260903063430 67 250 0.0 0.0 0.00 0.00 0.00 84 1013.8
20260903062930 67 269 0.0 0.0 0.00 0.00 0.00 83 1013.7
20260903062658 67 259 0.0 0.9 0.00 0.00 0.00 83 1013.7
20260903061930 67 306 0.0 1.7 0.00 0.00 0.00 83 1013.7
20260903061430 67 296 0.9 1.7 0.00 0.00 0.00 83 1013.7
20260903061152 67 341 0.0 1.7 0.00 0.00 0.00 83 1013.8
20260903060430 67 301 0.0 1.7 0.00 0.00 0.00 83 1013.7
20260903055930 67 293 0.9 2.6 0.00 0.00 0.00 83 1013.8
20260903055430 67 270 1.7 2.6 0.00 0.00 0.00 83 1013.8
20260903054646 67 294 1.7 1.7 0.00 0.00 0.00 83 1013.9
20260903053930 67 290 0.0 1.7 0.00 0.00 0.00 83 1013.9
20260903053656 67 268 0.9 2.6 0.00 0.00 0.00 83 1014.0
20260903052928 67 295 2.6 2.6 0.00 0.00 0.00 83 1014.0
20260903052645 67 278 1.7 2.6 0.00 0.00 0.00 83 1013.9
20260903051929 67 268 0.9 2.6 0.00 0.00 0.00 83 1014.0
20260903051429 67 275 0.9 1.7 0.00 0.00 0.00 83 1013.9
20260903050927 67 270 0.9 1.7 0.00 0.00 0.00 83 1014.0
20260903050427 67 273 1.7 1.7 0.00 0.00 0.00 84 1014.1
20260903050156 67 252 0.0 1.7 0.00 0.00 0.00 84 1014.0
20260903045429 67 265 0.0 1.7 0.00 0.00 0.00 83 1014.1
20260903044928 67 245 1.7 1.7 0.00 0.00 0.00 83 1014.0
20260903044653 68 250 0.0 1.7 0.00 0.00 0.00 83 1014.0
20260903044148 68 245 0.9 1.7 0.00 0.00 0.00 83 1014.0
20260903043428 68 243 0.9 1.7 0.00 0.00 0.00 82 1013.9
20260903042927 68 260 0.0 1.7 0.00 0.00 0.00 82 1013.9
20260903042427 68 269 0.0 4.3 0.00 0.00 0.00 82 1013.9
20260903041928 68 264 0.0 4.3 0.00 0.00 0.00 82 1013.9
20260903041648 68 302 2.6 4.3 0.00 0.00 0.00 82 1013.9
20260903040927 68 267 0.0 5.2 0.00 0.00 0.00 82 1013.9
20260903040427 68 321 3.5 5.2 0.00 0.00 0.00 82 1013.8
20260903035928 68 284 1.7 4.3 0.00 0.00 0.00 82 1013.7
20260903035653 68 299 3.5 6.1 0.00 0.00 0.00 82 1013.7
20260903034926 68 284 3.5 7.0 0.00 0.00 0.00 82 1013.6
20260903034647 68 294 4.3 7.0 0.00 0.00 0.00 82 1013.6
20260903033925 67 298 4.3 7.8 0.00 0.00 0.00 82 1013.5
20260903033428 67 16 2.6 7.8 0.00 0.00 0.00 82 1013.5
20260903032929 67 344 5.2 7.0 0.00 0.00 0.00 82 1013.4
20260903032425 67 324 4.3 7.0 0.00 0.00 0.00 82 1013.4
20260903031925 68 312 4.3 7.0 0.00 0.00 0.00 82 1013.5
20260903031427 68 293 3.5 7.0 0.00 0.00 0.00 83 1013.3
20260903030926 68 321 3.5 7.0 0.00 0.00 0.00 82 1013.2
20260903030425 68 331 3.5 7.0 0.00 0.00 0.00 83 1013.3
20260903025926 68 275 4.3 7.0 0.00 0.00 0.00 83 1013.2
20260903025652 68 301 2.6 7.8 0.00 0.00 0.00 83 1013.2
20260903024926 68 299 4.3 7.8 0.00 0.00 0.00 82 1013.2
20260903024424 68 348 4.3 7.8 0.00 0.00 0.00 82 1013.1
20260903023925 68 337 5.2 11.3 0.00 0.00 0.00 83 1013.0
20260903023426 68 324 6.1 11.3 0.00 0.00 0.00 82 1013.0
20260903022425 68 286 3.5 7.8 0.00 0.00 0.00 83 1013.0
20260903021924 69 315 3.5 6.1 0.00 0.00 0.00 83 1013.1
20260903021427 69 278 5.2 7.0 0.00 0.00 0.00 83 1013.1
20260903020925 69 298 2.6 7.0 0.00 0.00 0.00 83 1013.2
20260903020423 69 289 2.6 7.0 0.00 0.00 0.00 82 1013.1
20260903015924 69 267 2.6 7.0 0.00 0.00 0.00 82 1013.1
20260903015424 70 270 3.5 7.0 0.00 0.00 0.00 81 1013.1
20260903014925 70 328 2.6 7.0 0.00 0.00 0.00 80 1013.1
20260903014424 70 271 2.6 7.0 0.00 0.00 0.00 79 1013.0
20260903014141 70 305 1.7 7.0 0.00 0.00 0.00 78 1013.0
20260903013423 71 257 1.7 7.0 0.00 0.00 0.00 77 1013.0
20260903012924 71 321 1.7 7.8 0.00 0.00 0.00 77 1012.9
20260903012423 71 6 3.5 8.7 0.00 0.00 0.00 76 1013.0
20260903011923 71 264 2.6 8.7 0.00 0.00 0.00 76 1012.9
20260903011422 72 291 0.9 6.1 0.00 0.00 0.00 74 1012.8
20260903010924 72 349 4.3 6.1 0.00 0.00 0.00 73 1012.9
20260903010648 72 330 2.6 7.0 0.00 0.00 0.00 72 1012.8
20260903005922 72 329 3.5 7.0 0.00 0.00 0.00 72 1012.9
20260903005422 72 279 1.7 7.8 0.00 0.00 0.00 72 1012.9
20260903004923 72 294 2.6 7.8 0.00 0.00 0.00 72 1012.7
20260903004423 72 330 2.6 7.8 0.00 0.00 0.00 71 1012.8
20260903003922 73 264 1.7 7.0 0.00 0.00 0.00 71 1012.9
20260903003422 73 286 5.2 7.8 0.00 0.00 0.00 71 1012.9
20260903002923 73 318 6.1 7.8 0.00 0.00 0.00 72 1012.8
20260903002423 73 304 3.5 7.0 0.00 0.00 0.00 70 1012.9
20260903001922 73 284 4.3 7.0 0.00 0.00 0.00 69 1012.9
20260903001646 73 224 4.3 7.8 0.00 0.00 0.00 69 1012.9
20260903001148 73 310 2.6 7.8 0.00 0.00 0.00 70 1012.9
20260903000424 73 320 3.5 7.0 0.00 0.00 0.00 69 1013.0
20260902235921 73 262 3.5 7.0 0.00 0.00 0.00 67 1012.9
20260902235422 73 331 4.3 8.7 0.00 0.00 0.00 67 1013.0
20260902234922 73 284 0.9 10.4 0.00 0.00 0.00 69 1013.0
20260902234423 73 269 1.7 10.4 0.00 0.00 0.00 70 1013.0
20260902233920 73 345 2.6 8.7 0.00 0.00 0.00 69 1013.1
20260902233421 73 297 4.3 8.7 0.00 0.00 0.00 69 1013.1
20260902232921 73 350 4.3 7.8 0.00 0.00 0.00 68 1013.2
20260902232422 73 344 5.2 7.8 0.00 0.00 0.00 69 1013.1
20260902231920 73 283 4.3 7.8 0.00 0.00 0.00 68 1013.2
20260902231420 73 287 4.3 7.8 0.00 0.00 0.00 67 1013.3